Weather History for Jefferson, NC

Change the Weather History Date:

Saturday, February 28, 2004

  Actual Average Record
Temperature  
Mean Temperature 40 °F -  
Max Temperature 55 °F 48 °F 68 °F (1976)
Min Temperature 24 °F 27 °F 10 °F (2002)
Degree Days  
Heating Degree Days 26    
Moisture  
Dew Point 8 °F    
Average Humidity 28    
Maximum Humidity 64    
Minimum Humidity 10    
Precipitation  
Precipitation 0.00 in - - ()
Sea Level Pressure  
Sea Level Pressure 30.33 in    
Wind  
Wind Speed 3 mph (NE)    
Max Wind Speed 7 mph    
Max Gust Speed -    
Visibility 10 miles    
Events      
Averages and records for this station are not official NWS values.
T = Trace of Precipitation, MM = Missing Value Source: NWS Daily Summary

Daily Weather History Graph

Daily Weather History Graph

Search for Another Location

Airport:

Trip Planner

Search our weather history database for the weather conditions in past years. The results will help you decide how hot, cold, wet, or windy it might be!

Date:

Astronomy

Feb. 28, 2004 Rise Set
Actual Time 6:58 AM EST 6:18 PM EST
Civil Twilight 6:32 AM EST 6:44 PM EST
Nautical Twilight 6:02 AM EST 7:14 PM EST
Astronomical Twilight 5:32 AM EST 7:44 PM EST
Moon 11:27 AM EST (2/28) 1:47 AM EST (2/28)
Length of Visible Light 12h 12m
Length of Day
11h 20m
First Quarter, 55% of the Moon is Illuminated
Feb 28
First Quarter
Mar 6
Full
Mar 13
Last Quarter
Mar 20
New
Mar 28
First Quarter

Hourly Weather History & Observations

Time (EST) Temp. Windchill Dew Point Humidity Pressure Visibility Wind Dir Wind Speed Gust Speed Precip Events Conditions
12:00 AM 35.6 °F 29.9 °F 10.4 °F 35% 30.27 in 10.0 mi NNW 6.9 mph - N/A   Clear
12:20 AM 35.6 °F 29.9 °F 10.4 °F 35% 30.27 in 10.0 mi NNW 6.9 mph - N/A   Clear
12:40 AM 35.6 °F 31.7 °F 8.6 °F 33% 30.27 in 10.0 mi NNW 4.6 mph - N/A   Clear
1:00 AM 35.6 °F 29.9 °F 10.4 °F 35% 30.27 in 10.0 mi NNW 6.9 mph - N/A   Clear
1:20 AM 35.6 °F 29.9 °F 8.6 °F 33% 30.28 in 10.0 mi NNW 6.9 mph - N/A   Clear
1:40 AM 35.6 °F 29.9 °F 8.6 °F 33% 30.29 in 10.0 mi NW 6.9 mph - N/A   Clear
2:00 AM 35.6 °F 30.7 °F 8.6 °F 33% 30.29 in 10.0 mi NW 5.8 mph - N/A   Clear
2:20 AM 35.6 °F - 6.8 °F 30% 30.29 in 10.0 mi Calm Calm - N/A   Clear
2:40 AM 35.6 °F - 10.4 °F 35% 30.28 in 10.0 mi Calm Calm - N/A   Clear
3:00 AM 32.0 °F - 10.4 °F 41% 30.29 in 10.0 mi Calm Calm - N/A   Clear
3:20 AM 33.8 °F - 10.4 °F 38% 30.29 in 10.0 mi Calm Calm - N/A   Clear
3:40 AM 35.6 °F - 10.4 °F 35% 30.29 in 10.0 mi Calm Calm - N/A   Clear
4:00 AM 33.8 °F - 8.6 °F 35% 30.28 in 10.0 mi Calm Calm - N/A   Clear
4:21 AM 30.2 °F - 10.4 °F 44% 30.28 in 10.0 mi Calm Calm - N/A   Clear
4:40 AM 32.0 °F - 8.6 °F 38% 30.28 in 10.0 mi Calm Calm - N/A   Clear
5:00 AM 28.4 °F - 15.8 °F 59% 30.30 in 10.0 mi Calm Calm - N/A   Clear
5:20 AM 28.4 °F - 15.8 °F 59% 30.30 in 10.0 mi Calm Calm - N/A   Clear
5:40 AM 30.2 °F - 12.2 °F 47% 30.32 in 10.0 mi Calm Calm - N/A   Clear
6:03 AM 30.2 °F 23.4 °F 8.6 °F 40% 30.33 in 10.0 mi NNW 6.9 mph - N/A   Clear
6:21 AM 33.8 °F 30.8 °F 8.6 °F 35% 30.33 in 10.0 mi North 3.5 mph - N/A   Clear
6:43 AM 24.8 °F - 14.0 °F 64% 30.32 in 10.0 mi Calm Calm - N/A   Clear
7:00 AM 32.0 °F - 8.6 °F 38% 30.33 in 10.0 mi Calm Calm - N/A   Clear
7:23 AM 35.6 °F - 6.8 °F 30% 30.33 in 10.0 mi Calm Calm - N/A   Clear
7:40 AM 35.6 °F - 6.8 °F 30% 30.33 in 10.0 mi Calm Calm - N/A   Clear
8:00 AM 33.8 °F - 8.6 °F 35% 30.34 in 10.0 mi Calm Calm - N/A   Clear
8:20 AM 35.6 °F - 8.6 °F 33% 30.35 in 10.0 mi Calm Calm - N/A   Clear
8:40 AM 35.6 °F - 14.0 °F 41% 30.36 in 10.0 mi Calm Calm - N/A   Clear
9:00 AM 37.4 °F - 19.4 °F 48% 30.36 in 10.0 mi Calm Calm - N/A   Clear
9:21 AM 39.2 °F - 17.6 °F 42% 30.36 in 10.0 mi Calm Calm - N/A   Clear
9:40 AM 41.0 °F - 5.0 °F 23% 30.36 in 10.0 mi Calm Calm - N/A   Clear
10:01 AM 42.8 °F - 21.2 °F 42% 30.37 in 10.0 mi Calm Calm - N/A   Clear
10:20 AM 44.6 °F - 12.2 °F 27% 30.37 in 10.0 mi Calm Calm - N/A   Clear
10:40 AM 44.6 °F - 17.6 °F 34% 30.38 in 10.0 mi Calm Calm - N/A   Clear
11:00 AM 48.2 °F - 8.6 °F 20% 30.38 in 10.0 mi NNE 3.5 mph - N/A   Clear
11:23 AM 48.2 °F - 3.2 °F 16% 30.39 in 10.0 mi East 3.5 mph - N/A   Clear
11:40 AM 50.0 °F - 5.0 °F 16% 30.38 in 10.0 mi Calm Calm - N/A   Clear
12:00 PM 50.0 °F - 6.8 °F 17% 30.38 in 10.0 mi Calm Calm - N/A   Clear
12:20 PM 50.0 °F - -0.4 °F 13% 30.38 in 10.0 mi Calm Calm - N/A   Clear
12:40 PM 50.0 °F - 1.4 °F 14% 30.38 in 10.0 mi Calm Calm - N/A   Clear
1:00 PM 51.8 °F - 1.4 °F 13% 30.37 in 10.0 mi Calm Calm - N/A   Clear
1:22 PM 53.6 °F - 3.2 °F 13% 30.37 in 10.0 mi North 4.6 mph - N/A   Clear
1:40 PM 55.4 °F - 3.2 °F 12% 30.36 in 10.0 mi Calm Calm - N/A   Clear
2:00 PM 55.4 °F - 5.0 °F 13% 30.36 in 10.0 mi NE 3.5 mph - N/A   Clear
2:20 PM 55.4 °F - 3.2 °F 12% 30.36 in 10.0 mi NE 3.5 mph - N/A   Clear
2:42 PM 55.4 °F - 3.2 °F 12% 30.35 in 10.0 mi East 6.9 mph - N/A   Clear
3:20 PM 55.4 °F - -0.4 °F 10% 30.35 in 10.0 mi East 5.8 mph - N/A   Clear
3:40 PM 55.4 °F - -0.4 °F 10% 30.35 in 10.0 mi Calm Calm - N/A   Clear
4:00 PM 55.4 °F - 1.4 °F 11% 30.34 in 10.0 mi East 3.5 mph - N/A   Clear
4:20 PM 55.4 °F - 1.4 °F 11% 30.34 in 10.0 mi ESE 4.6 mph - N/A   Clear
4:40 PM 55.4 °F - 1.4 °F 11% 30.34 in 10.0 mi Calm Calm - N/A   Clear
5:00 PM 53.6 °F - 3.2 °F 13% 30.34 in 10.0 mi ESE 3.5 mph - N/A   Clear
5:20 PM 53.6 °F - -0.4 °F 11% 30.34 in 10.0 mi Calm Calm - N/A   Clear
5:42 PM 53.6 °F - 1.4 °F 12% 30.34 in 10.0 mi SE 4.6 mph - N/A   Clear
6:00 PM 50.0 °F - 8.6 °F 19% 30.35 in 10.0 mi SSE 4.6 mph - N/A   Clear
6:20 PM 50.0 °F - 12.2 °F 22% 30.35 in 10.0 mi Calm Calm - N/A   Clear
6:40 PM 48.2 °F - 10.4 °F 22% 30.36 in 10.0 mi SSE 3.5 mph - N/A   Clear
7:00 PM 44.6 °F 42.2 °F 10.4 °F 25% 30.36 in 10.0 mi SSE 4.6 mph - N/A   Clear
7:20 PM 44.6 °F 42.2 °F 12.2 °F 27% 30.37 in 10.0 mi South 4.6 mph - N/A   Clear
7:40 PM 42.8 °F - 12.2 °F 29% 30.37 in 10.0 mi Calm Calm - N/A   Clear
8:00 PM 42.8 °F - 12.2 °F 29% 30.37 in 10.0 mi Calm Calm - N/A   Clear
8:20 PM 42.8 °F 41.1 °F 12.2 °F 29% 30.37 in 10.0 mi SSW 3.5 mph - N/A   Clear
8:40 PM 42.8 °F - 14.0 °F 31% 30.37 in 10.0 mi Calm Calm - N/A   Clear
9:00 PM 42.8 °F - 12.2 °F 29% 30.37 in 10.0 mi Calm Calm - N/A   Clear
9:22 PM 42.8 °F - 12.2 °F 29% 30.37 in 10.0 mi Calm Calm - N/A   Clear
9:40 PM 39.2 °F - 14.0 °F 36% 30.38 in 10.0 mi Calm Calm - N/A   Clear
10:00 PM 37.4 °F - 15.8 °F 41% 30.38 in 10.0 mi Calm Calm - N/A   Clear
10:20 PM 37.4 °F 33.8 °F 15.8 °F 41% 30.38 in 10.0 mi West 4.6 mph - N/A   Clear
10:40 PM 37.4 °F 34.9 °F 15.8 °F 41% 30.38 in 10.0 mi WSW 3.5 mph - N/A   Clear
11:02 PM 37.4 °F 34.9 °F 15.8 °F 41% 30.38 in 10.0 mi WSW 3.5 mph - N/A   Clear
11:20 PM 35.6 °F - 17.6 °F 48% 30.38 in 10.0 mi Calm Calm - N/A   Clear
11:40 PM 35.6 °F 32.8 °F 17.6 °F 48% 30.37 in 10.0 mi WSW 3.5 mph - N/A   Clear